Tracking 32140 objects as of 13-Nov-2025
HD Live streaming from Space Station
objects crossing your sky now

STARLINK-30806

Track STARLINK-30806 now!
10-day predictions
STARLINK-30806 is classified as:


NORAD ID: 58180
Int'l Code: 2023-167F
Perigee: 565.3 km
Apogee: 567.4 km
Inclination: 43.0 °
Period: 95.8 minutes
Semi major axis: 6937 km
RCS: Unknown
Launch date: October 30, 2023
Source: United States (US)
Launch site: AIR FORCE EASTERN TEST RANGE (AFETR)
Your satellite tracking list
Your tracking list is empty




NASA's NSSDC Master Catalog

Two Line Element Set (TLE):
1 58180U 23167F   25317.61566701 -.00009944  00000-0 -72288-3 0  9999
2 58180  43.0034  56.7286 0001503 254.4259 105.6418 15.02493797113492
Source of the keplerian elements: AFSPC